Location: Rounton
(54.4000°N, 1.3500°W)
Time: 14:15:21
(UTC+00:00)

Transit 2A - Pass Details

Date: 07 December 2021
Orbit: 591 x 967 km, 66.7° (Epoch: 21 January)

Event Time Altitude Azimuth Distance (km) Brightness Sun altitude
Rises 03:49:37 0° 292° (WNW) 3,559 - -36.6°
Reaches altitude 10° 03:52:32 10° 304° (NW) 2,657 - -36.2°
Maximum altitude 03:57:46 27° 1° (N) 1,771 - -35.4°
Exits shadow 03:58:34 26° 13° (NNE) 1,800 8.0 -35.3°
Drops below altitude 10° 04:03:07 10° 57° (ENE) 2,715 9.5 -34.7°
Sets 04:06:08 0° 70° (ENE) 3,650 10.5 -34.2°
